ENGM Airport Information

Runway Information
Runway 01L Length 11811 ft width 148 ft
Elevation 656 ft Threshold 0 ft Heading 16
Runway 19R Length 11811 ft Width 148 ft
Elevation 675 ft Threshold 0 ft Heading 196
Runway 01R Length 9678 ft width 148 ft
Elevation 670 ft Threshold 0 ft Heading 16
Runway 19L Length 9678 ft Width 148 ft
Elevation 681 ft Threshold 0 ft Heading 196
Airport Frequencies
Type APP Name APP Frequency 119.975 MHZ
Type ATIS Name ATIS Frequency 126.125 MHZ
Type CLD Name CLNC DEL Frequency 121.6 MHZ
Type DIR Name DIRECTOR Frequency 131.35 MHZ
Type GND Name GND Frequency 121.925 MHZ
Type MISC Name DE ICING Frequency 131.975 MHZ
Type OPS Name WINGOPS Frequency 29.38 MHZ
Type PMSV Name PMSV METRO Frequency 134.175 MHZ
Type TWR Name TWR Frequency 118.3 MHZ
Airport Navaids
Type NDB Name Bergerud Frequency 316 KHZ
Type VOR-DME Name Gardermoen Frequency 115950 KHZ
Type NDB Name Oppaker Frequency 334 KHZ
Type NDB Name Solberg Frequency 414 KHZ
Type NDB Name Soknen Frequency 387 KHZ
Airport Weather Information & NOTAM
Deprecated: The each() function is deprecated. This message will be suppressed on further calls in /storage/content/79/1005879/virtualnac.org/public_html/v2/lib/functions.php on line 154 ADDS - METARS form results

(1004 UTC 23 October 2021)
Data provider http://aviationweather.gov/metar/data/
 
METAR text: ENGM 230950Z VRB02KT CAVOK 07/M04 Q1017 NOSIG
Conditions at: ENGM (OSLO/GARDERMOEN , NO) observed 0950 UTC 23 October 2021
Temperature: 7.0°C (45°F)
Dewpoint: -4.0°C (25°F) [RH = 45%]
Pressure (altimeter): 30.03 inches Hg (1017.0 mb)
Winds: variable direction winds at 2 MPH (2 knots; 1.0 m/s)
Visibility: 6 or more miles (10+ km)
Ceiling: ceiling and visibility are OK
Clouds: unknown
Weather: no significant weather observed at this time

METAR text: ENGM 230920Z VRB01KT CAVOK 06/M04 Q1016 NOSIG
Conditions at: ENGM (OSLO/GARDERMOEN , NO) observed 0920 UTC 23 October 2021
Temperature: 6.0°C (43°F)
Dewpoint: -4.0°C (25°F) [RH = 49%]
Pressure (altimeter): 30.00 inches Hg (1016.0 mb)
Winds: variable direction winds at 1 MPH (1 knots; 0.5 m/s)
Visibility: 6 or more miles (10+ km)
Ceiling: ceiling and visibility are OK
Clouds: unknown
Weather: no significant weather observed at this time

Forecast for: ENGM (OSLO/GARDERMOEN , NO)
Text: TAF ENGM 2306/2406 29006KT CAVOK
Forecast period: 0600 UTC 23 October 2021 to 0600 UTC 24 October 2021
Forecast type: FROM: standard forecast or significant change
Winds: from the WNW (290 degrees) at 7 MPH (6 knots; 3.1 m/s)
Visibility: 6 or more miles (10+ km)
Ceiling: unknown
Clouds: missing
Weather: NSW  (no significant weather)